GW4220 Weather Reports


Display with metric or nautical units.
time (UTC)temp
F
wind
direction
speed
MPH
gust
MPH
rain 1hr
in
rain 24hr
in
rain mn
in
humidity
%
barometer
mb
20260505114206 57 88 1.0 1.0 0.00 0.00 0.00 75 1012.8
20260505113703 58 88 1.0 1.0 0.00 0.00 0.00 73 1012.6
20260505113200 59 116 1.0 1.0 0.00 0.00 0.00 72 1012.7
20260505112656 59 112 0.0 0.0 0.00 0.00 0.00 72 1012.9
20260505112154 59 167 3.0 4.0 0.00 0.00 0.00 72 1012.8
20260505111653 59 165 4.0 4.0 0.00 0.00 0.00 72 1012.9
20260505111149 59 182 3.0 3.0 0.00 0.00 0.00 71 1013.0
20260505110646 58 128 1.0 2.0 0.00 0.00 0.00 72 1013.1
20260505110143 58 169 3.0 4.0 0.00 0.00 0.00 73 1013.0
20260505102119 51 120 0.0 0.0 0.00 0.00 0.00 85 1013.1
20260505101617 50 111 0.0 0.0 0.00 0.00 0.00 85 1012.8
20260505101113 50 105 0.0 0.0 0.00 0.00 0.00 85 1012.8
20260505100610 50 94 1.0 1.0 0.00 0.00 0.00 84 1012.8
20260505100107 51 103 0.0 0.0 0.00 0.00 0.00 84 1012.7
20260505095603 51 107 0.0 0.0 0.00 0.00 0.00 84 1012.6
20260505095059 50 109 0.0 0.0 0.00 0.00 0.00 84 1012.8
20260505094556 50 154 1.0 1.0 0.00 0.00 0.00 84 1012.6
20260505094052 49 103 0.0 0.0 0.00 0.00 0.00 83 1012.3
20260505093549 49 132 1.0 1.0 0.00 0.00 0.00 83 1012.3
20260505093046 49 103 0.0 0.0 0.00 0.00 0.00 82 1012.2
20260505092543 49 116 0.0 0.0 0.00 0.00 0.00 82 1012.3
20260505092042 49 113 0.0 0.0 0.00 0.00 0.00 82 1011.9
20260505091538 49 147 1.0 2.0 0.00 0.00 0.00 81 1012.1
20260505091037 49 100 0.0 1.0 0.00 0.00 0.00 81 1012.1
20260505090534 49 100 0.0 0.0 0.00 0.00 0.00 80 1012.1
20260505090032 50 99 1.0 1.0 0.00 0.00 0.00 80 1012.3
20260505085529 51 105 1.0 1.0 0.00 0.00 0.00 79 1012.2
20260505085027 51 116 0.0 0.0 0.00 0.00 0.00 79 1012.2
20260505084525 51 111 0.0 0.0 0.00 0.00 0.00 78 1012.4
20260505084023 51 117 0.0 0.0 0.00 0.00 0.00 78 1012.3
20260505083520 51 144 1.0 1.0 0.00 0.00 0.00 78 1012.2
20260505083017 51 128 0.0 0.0 0.00 0.00 0.00 77 1012.4
20260505082512 51 133 1.0 1.0 0.00 0.00 0.00 76 1012.3
20260505082009 51 119 0.0 0.0 0.00 0.00 0.00 76 1012.3
20260505081506 52 119 0.0 0.0 0.00 0.00 0.00 75 1012.4
20260505081003 52 119 0.0 0.0 0.00 0.00 0.00 75 1012.2
20260505080500 53 121 0.0 0.0 0.00 0.00 0.00 74 1012.3
20260505075955 53 138 1.0 1.0 0.00 0.00 0.00 75 1012.4
20260505075452 53 108 0.0 1.0 0.00 0.00 0.00 74 1012.2
20260505074949 52 121 0.0 0.0 0.00 0.00 0.00 74 1012.4
20260505074446 52 135 0.0 1.0 0.00 0.00 0.00 73 1012.5
20260505073943 52 126 0.0 0.0 0.00 0.00 0.00 73 1012.4
20260505073441 52 121 0.0 0.0 0.00 0.00 0.00 72 1012.4
20260505072938 53 121 0.0 0.0 0.00 0.00 0.00 72 1012.4
20260505072434 53 131 0.0 0.0 0.00 0.00 0.00 71 1012.2
20260505071930 53 112 0.0 0.0 0.00 0.00 0.00 70 1012.3
20260505071426 53 108 0.0 0.0 0.00 0.00 0.00 69 1012.4
20260505070924 54 108 0.0 0.0 0.00 0.00 0.00 68 1012.4
20260505070421 54 130 0.0 1.0 0.00 0.00 0.00 67 1012.4
20260505065916 55 124 0.0 0.0 0.00 0.00 0.00 66 1012.2
20260505065413 55 123 0.0 0.0 0.00 0.00 0.00 65 1012.5
20260505064910 56 109 0.0 0.0 0.00 0.00 0.00 63 1012.4
20260505064407 57 117 0.0 0.0 0.00 0.00 0.00 62 1012.3
20260505063906 58 113 0.0 0.0 0.00 0.00 0.00 60 1012.4
20260505063402 59 134 0.0 1.0 0.00 0.00 0.00 59 1012.2
20260505062858 59 112 1.0 1.0 0.00 0.00 0.00 59 1012.4
20260505062355 59 121 1.0 1.0 0.00 0.00 0.00 59 1012.1
20260505061852 59 153 2.0 2.0 0.00 0.00 0.00 59 1012.2
20260505061350 59 150 2.0 2.0 0.00 0.00 0.00 60 1012.3
20260505060848 59 138 1.0 1.0 0.00 0.00 0.00 59 1012.3
20260505060344 59 121 0.0 1.0 0.00 0.00 0.00 58 1012.4
20260505055840 60 122 1.0 1.0 0.00 0.00 0.00 58 1012.2
20260505055336 60 137 2.0 2.0 0.00 0.00 0.00 58 1012.3
20260505054834 60 134 1.0 2.0 0.00 0.00 0.00 57 1012.3
20260505054331 60 131 0.0 1.0 0.00 0.00 0.00 57 1012.5
20260505053829 60 159 3.0 3.0 0.00 0.00 0.00 56 1012.4
20260505053326 61 162 2.0 2.0 0.00 0.00 0.00 56 1012.4
20260505052822 61 156 3.0 4.0 0.00 0.00 0.00 56 1012.5
20260505052319 61 171 3.0 3.0 0.00 0.00 0.00 56 1012.6
20260505051817 61 115 4.0 4.0 0.00 0.00 0.00 55 1012.5
20260505051314 61 188 5.0 7.0 0.00 0.00 0.00 55 1012.6
20260505050812 61 142 3.0 3.0 0.00 0.00 0.00 55 1012.4
20260505050310 61 124 3.0 4.0 0.00 0.00 0.00 55 1012.5
20260505041740 62 178 4.0 6.0 0.00 0.00 0.00 54 1012.8
20260505041237 61 122 2.0 2.0 0.00 0.00 0.00 54 1012.9
20260505040734 61 143 1.0 1.0 0.00 0.00 0.00 54 1012.7
20260505040232 62 145 3.0 4.0 0.00 0.00 0.00 53 1012.8
20260505035729 62 133 5.0 8.0 0.00 0.00 0.00 53 1013.0
20260505035224 62 170 3.0 4.0 0.00 0.00 0.00 53 1012.7
20260505034721 62 178 6.0 8.0 0.00 0.00 0.00 53 1012.7
20260505034218 62 194 5.0 7.0 0.00 0.00 0.00 53 1012.7
20260505033715 62 161 6.0 7.0 0.00 0.00 0.00 53 1012.7
20260505033213 61 133 4.0 6.0 0.00 0.00 0.00 53 1012.9
20260505032711 61 175 6.0 7.0 0.00 0.00 0.00 53 1012.9
20260505032206 62 155 6.0 7.0 0.00 0.00 0.00 53 1012.7
20260505031704 62 171 6.0 7.0 0.00 0.00 0.00 53 1012.8
20260505031200 62 166 7.0 8.0 0.00 0.00 0.00 53 1012.6
20260505030657 61 126 4.0 4.0 0.00 0.00 0.00 54 1012.8
20260505030152 61 160 5.0 6.0 0.00 0.00 0.00 54 1012.8
20260505025649 61 157 4.0 4.0 0.00 0.00 0.00 54 1013.0
20260505025147 61 163 2.0 4.0 0.00 0.00 0.00 54 1012.8
20260505024644 61 178 4.0 4.0 0.00 0.00 0.00 54 1012.6
20260505024141 62 169 4.0 4.0 0.00 0.00 0.00 54 1012.7
20260505023639 62 166 3.0 3.0 0.00 0.00 0.00 54 1012.7
20260505023136 62 190 5.0 7.0 0.00 0.00 0.00 54 1012.9
20260505022634 62 162 3.0 3.0 0.00 0.00 0.00 54 1012.9
20260505022130 62 164 2.0 2.0 0.00 0.00 0.00 54 1013.0
20260505021627 62 156 0.0 1.0 0.00 0.00 0.00 53 1012.9
20260505021124 62 199 4.0 4.0 0.00 0.00 0.00 53 1012.7
20260505020619 62 115 1.0 1.0 0.00 0.00 0.00 52 1012.7
20260505020116 63 158 4.0 4.0 0.00 0.00 0.00 52 1012.7
20260505015613 63 169 3.0 3.0 0.00 0.00 0.00 51 1012.9
20260505015110 63 182 5.0 6.0 0.00 0.00 0.00 51 1012.7
20260505014606 63 101 1.0 2.0 0.00 0.00 0.00 51 1012.9
20260505014103 64 176 3.0 4.0 0.00 0.00 0.00 50 1012.9
20260505013601 64 180 5.0 6.0 0.00 0.00 0.00 49 1012.6
20260505013058 64 178 3.0 6.0 0.00 0.00 0.00 49 1012.6
20260505012556 64 160 4.0 4.0 0.00 0.00 0.00 49 1012.5
20260505012053 64 161 5.0 6.0 0.00 0.00 0.00 49 1012.6
20260505011548 64 166 3.0 4.0 0.00 0.00 0.00 48 1012.5
20260505011046 65 158 3.0 3.0 0.00 0.00 0.00 47 1012.4
20260505010541 65 164 5.0 6.0 0.00 0.00 0.00 45 1012.3
20260505010038 65 161 2.0 2.0 0.00 0.00 0.00 44 1012.3
20260505005534 65 173 4.0 4.0 0.00 0.00 0.00 43 1012.1
20260505005032 66 171 3.0 3.0 0.00 0.00 0.00 43 1012.1
20260505004529 66 165 3.0 3.0 0.00 0.00 0.00 43 1011.9
20260505004025 66 169 2.0 2.0 0.00 0.00 0.00 42 1011.9
20260505003522 67 163 2.0 2.0 0.00 0.00 0.00 41 1011.7
20260505003020 67 135 2.0 2.0 0.00 0.00 0.00 40 1011.5
20260505002520 68 151 2.0 2.0 0.00 0.00 0.00 39 1011.6
20260505002020 68 156 2.0 2.0 0.00 0.00 0.00 39 1011.6
20260505001517 68 156 3.0 4.0 0.00 0.00 0.00 39 1011.4
20260505001014 68 133 2.0 2.0 0.00 0.00 0.00 38 1011.3
20260505000511 68 119 0.0 1.0 0.00 0.00 0.00 38 1011.2
20260505000009 69 154 2.0 2.0 0.00 0.00 0.00 38 1011.1
20260504235505 69 164 4.0 6.0 0.00 0.00 0.00 38 1011.0
20260504235001 69 125 0.0 0.0 0.00 0.00 0.00 37 1011.1
20260504234459 69 113 0.0 0.0 0.00 0.00 0.00 37 1010.9
20260504233956 69 118 0.0 0.0 0.00 0.00 0.00 37 1010.9
20260504233451 70 174 3.0 4.0 0.00 0.00 0.00 37 1011.0
20260504232948 70 133 1.0 1.0 0.00 0.00 0.00 37 1010.8
20260504232445 70 124 1.0 1.0 0.00 0.00 0.00 37 1010.6
20260504231943 70 229 7.0 9.0 0.00 0.00 0.00 36 1010.8
20260504231439 70 253 9.0 13.0 0.00 0.00 0.00 36 1010.9
20260504230935 71 202 5.0 7.0 0.00 0.00 0.00 36 1010.5
20260504230432 71 126 2.0 3.0 0.00 0.00 0.00 36 1010.7
20260504225931 71 222 2.0 4.0 0.00 0.00 0.00 35 1010.3
20260504225427 71 173 4.0 6.0 0.00 0.00 0.00 35 1010.5
20260504224925 71 217 7.0 8.0 0.00 0.00 0.00 35 1010.2
20260504224421 72 151 3.0 4.0 0.00 0.00 0.00 35 1010.2
20260504223919 72 230 3.0 6.0 0.00 0.00 0.00 34 1010.3
20260504223414 72 188 2.0 3.0 0.00 0.00 0.00 34 1010.2
20260504222910 72 190 6.0 9.0 0.00 0.00 0.00 34 1010.3
20260504222408 72 178 4.0 6.0 0.00 0.00 0.00 34 1010.3
20260504221906 72 157 4.0 7.0 0.00 0.00 0.00 34 1010.5
20260504221402 72 252 6.0 8.0 0.00 0.00 0.00 34 1010.5
20260504220859 72 176 3.0 4.0 0.00 0.00 0.00 34 1010.5
20260504220356 72 295 6.0 7.0 0.00 0.00 0.00 34 1010.6
20260504215853 73 219 6.0 8.0 0.00 0.00 0.00 34 1010.6
20260504215349 73 135 8.0 11.0 0.00 0.00 0.00 34 1010.5
20260504214846 73 104 3.0 4.0 0.00 0.00 0.00 34 1010.7
20260504214343 73 201 4.0 4.0 0.00 0.00 0.00 33 1010.7
20260504213839 72 173 4.0 8.0 0.00 0.00 0.00 34 1010.8
20260504213335 72 218 11.0 13.0 0.00 0.00 0.00 33 1010.9
20260504212833 73 197 10.0 11.0 0.00 0.00 0.00 33 1010.8
20260504212329 73 251 6.0 9.0 0.00 0.00 0.00 34 1010.8
20260504211827 73 200 6.0 8.0 0.00 0.00 0.00 33 1010.8
20260504211327 73 254 8.0 10.0 0.00 0.00 0.00 33 1010.8
20260504210825 74 170 2.0 3.0 0.00 0.00 0.00 34 1011.1
20260504210322 74 235 5.0 6.0 0.00 0.00 0.00 33 1011.1
20260504205819 73 200 6.0 13.0 0.00 0.00 0.00 33 1011.1
20260504205317 73 154 7.0 9.0 0.00 0.00 0.00 33 1011.0
20260504204815 73 244 5.0 6.0 0.00 0.00 0.00 33 1011.0
20260504204313 73 184 7.0 8.0 0.00 0.00 0.00 33 1011.0
20260504203812 73 217 4.0 4.0 0.00 0.00 0.00 34 1011.1
20260504203309 73 248 4.0 6.0 0.00 0.00 0.00 33 1011.1
20260504202804 73 244 6.0 7.0 0.00 0.00 0.00 33 1011.0
20260504202301 73 155 2.0 3.0 0.00 0.00 0.00 32 1011.0
20260504201758 73 229 2.0 3.0 0.00 0.00 0.00 34 1011.1
20260504201255 73 206 2.0 4.0 0.00 0.00 0.00 33 1011.2
20260504200753 72 236 8.0 9.0 0.00 0.00 0.00 33 1011.2
20260504200249 73 199 9.0 10.0 0.00 0.00 0.00 33 1011.5
20260504195746 73 159 3.0 4.0 0.00 0.00 0.00 33 1011.2
20260504195241 72 210 12.0 16.0 0.00 0.00 0.00 32 1011.5
20260504194739 73 120 4.0 7.0 0.00 0.00 0.00 32 1011.5
20260504194235 74 207 6.0 7.0 0.00 0.00 0.00 34 1011.5
20260504193731 73 164 3.0 3.0 0.00 0.00 0.00 34 1011.6
20260504193229 72 230 5.0 6.0 0.00 0.00 0.00 33 1011.5
20260504192727 71 248 9.0 11.0 0.00 0.00 0.00 32 1011.6
20260504192225 73 153 6.0 9.0 0.00 0.00 0.00 34 1011.8
20260504191723 72 218 8.0 11.0 0.00 0.00 0.00 35 1011.8
20260504191220 72 178 5.0 7.0 0.00 0.00 0.00 33 1011.7
20260504190715 72 255 6.0 7.0 0.00 0.00 0.00 32 1011.8
20260504190212 71 106 5.0 7.0 0.00 0.00 0.00 33 1012.0
20260504185708 71 165 4.0 6.0 0.00 0.00 0.00 34 1011.9
20260504185205 70 230 10.0 11.0 0.00 0.00 0.00 33 1012.2
20260504184701 70 207 6.0 7.0 0.00 0.00 0.00 33 1012.1
20260504184156 71 192 12.0 15.0 0.00 0.00 0.00 34 1012.1
20260504183653 71 176 5.0 6.0 0.00 0.00 0.00 33 1012.2
20260504183150 71 223 3.0 4.0 0.00 0.00 0.00 34 1012.2
20260504182648 70 271 7.0 10.0 0.00 0.00 0.00 34 1012.5
20260504182145 69 209 12.0 14.0 0.00 0.00 0.00 35 1012.5
20260504181643 70 216 9.0 11.0 0.00 0.00 0.00 34 1012.4
20260504181140 69 179 5.0 8.0 0.00 0.00 0.00 36 1012.5
20260504180639 69 163 6.0 8.0 0.00 0.00 0.00 35 1012.8
20260504180138 69 270 6.0 8.0 0.00 0.00 0.00 34 1012.6
20260504175634 69 244 8.0 9.0 0.00 0.00 0.00 35 1012.7
20260504175131 69 264 6.0 9.0 0.00 0.00 0.00 35 1012.7
20260504174630 70 215 8.0 10.0 0.00 0.00 0.00 35 1012.7
20260504174125 69 194 4.0 8.0 0.00 0.00 0.00 35 1012.8
20260504173623 68 137 2.0 3.0 0.00 0.00 0.00 37 1012.7
20260504173120 69 114 4.0 6.0 0.00 0.00 0.00 36 1012.8
20260504172616 69 223 4.0 6.0 0.00 0.00 0.00 36 1013.0
20260504172113 69 272 6.0 8.0 0.00 0.00 0.00 36 1012.9
20260504171609 69 186 4.0 7.0 0.00 0.00 0.00 36 1012.9
20260504171107 68 144 6.0 10.0 0.00 0.00 0.00 37 1013.2
20260504170602 69 228 6.0 9.0 0.00 0.00 0.00 36 1013.2
20260504150946 65 203 4.0 6.0 0.00 0.00 0.00 38 1014.3
20260504150443 64 160 2.0 3.0 0.00 0.00 0.00 38 1014.5
20260504140909 63 164 3.0 4.0 0.00 0.00 0.00 40 1015.0
20260504140405 62 297 6.0 8.0 0.00 0.00 0.00 40 1015.1
20260504130330 58 236 8.0 11.0 0.00 0.00 0.00 45 1015.6
20260504120254 54 189 3.0 4.0 0.00 0.00 0.00 55 1016.2